Wind_Speed
28 27 25 24 23 23 23 22 20 18 15 14 12 12 12 12 10 9 9 8 6 6 6 7 7 7 7 7 7 8 7 8 8 9 9 9 9 9 9 9 10 9 9 9
27 25 24 26 26 25 24 22 20 19 16 15 14 14 13 13 13 12 10 9 8 7 7 7 8 8 8 8 8 8 9 8 8 8 9 9 10 10 9 10 10 10 9 10
25 24 26 27 27 27 25 22 20 18 17 17 16 16 16 14 14 13 12 10 9 8 8 8 9 9 9 8 8 8 8 8 8 8 8 8 8 9 9 9 9 10 10 11
27 28 28 28 27 26 24 22 21 20 19 19 19 18 16 14 14 14 12 12 10 10 9 9 9 9 9 9 8 9 9 9 8 7 7 8 8 9 9 9 9 10 10 9
27 28 28 28 26 26 24 24 23 22 21 22 21 21 18 17 16 15 13 12 11 10 10 10 10 9 9 9 9 9 9 9 9 8 8 8 9 9 9 9 9 9 9 9
28 29 29 28 27 26 26 26 26 25 24 24 22 23 21 19 16 15 14 12 12 11 10 10 10 10 9 9 10 10 10 10 10 9 9 10 10 10 10 9 9 9 9 9
29 30 29 29 28 28 28 28 28 28 27 25 23 24 20 17 17 16 15 13 12 11 10 10 9 9 9 9 9 10 10 11 11 10 10 10 9 10 10 10 10 9 9 9
29 29 28 28 28 27 27 28 28 28 27 24 24 23 19 17 18 17 16 14 13 11 10 10 10 9 9 9 9 10 11 11 11 11 11 10 10 10 10 10 10 10 10 10
27 28 28 28 27 27 27 28 28 27 26 25 24 22 20 19 19 19 18 15 13 12 11 10 10 9 9 9 9 10 11 11 11 11 11 10 11 11 11 11 11 11 10 10
26 27 27 27 28 28 27 27 29 29 28 26 24 22 20 19 19 18 16 13 12 11 11 10 9 9 10 10 10 10 11 12 12 12 11 11 11 11 11 12 12 12 11 11
25 27 27 28 30 28 29 30 30 30 29 27 24 22 19 17 16 16 14 13 13 11 11 10 10 9 9 10 11 11 11 12 12 12 11 11 11 11 11 11 11 11 12 12
25 26 28 28 28 28 29 29 30 30 29 27 25 22 19 17 16 17 15 14 13 11 11 11 10 9 9 11 11 12 12 12 13 12 11 10 10 11 10 10 11 12 12 12
27 27 28 28 29 30 30 29 30 30 29 28 26 22 20 19 16 16 15 14 13 11 10 11 11 11 11 11 11 12 12 12 12 11 11 11 10 11 12 11 12 12 12 12
28 29 29 28 27 28 29 30 32 32 31 29 27 24 23 21 18 16 14 13 12 11 11 12 13 12 12 12 12 12 11 12 12 12 12 12 12 12 12 13 13 14 14 13
29 30 29 28 28 29 29 29 30 32 31 30 28 26 23 22 19 18 16 15 14 12 12 12 12 13 12 13 13 12 12 12 12 12 13 12 13 13 14 14 14 15 15 15
30 31 30 30 30 30 31 30 30 31 30 29 28 27 26 24 22 20 19 17 15 14 13 14 14 14 13 13 13 13 13 13 14 14 13 13 13 14 14 14 14 15 15 15
31 31 32 32 32 32 33 31 31 31 31 30 28 26 26 26 25 22 21 19 16 16 15 15 15 14 14 14 14 14 14 14 13 13 14 14 14 14 13 14 14 14 15 15
32 32 32 32 33 35 30 30 31 31 31 30 28 26 25 25 24 22 21 20 18 18 16 15 15 15 15 14 15 15 14 14 14 15 15 15 15 15 15 15 15 15 14 15
32 32 33 33 34 35 32 30 30 30 29 29 29 28 26 26 25 23 21 20 19 19 17 16 16 15 15 15 15 14 14 14 14 15 15 15 15 15 14 15 16 16 16 16
33 33 34 34 34 35 32 32 32 31 31 30 29 28 27 27 26 24 23 22 20 18 16 15 15 15 14 14 14 13 13 13 14 14 14 14 14 14 15 15 16 16 16 17
34 34 34 34 34 34 32 33 33 32 31 30 30 29 28 27 25 25 24 22 20 19 17 16 15 15 14 14 14 14 14 14 14 14 14 15 15 15 15 15 16 17 17 17
34 34 33 33 34 34 34 34 34 32 30 30 30 30 29 27 25 25 24 22 20 19 19 18 17 16 15 15 15 15 15 15 15 15 15 14 14 14 15 16 17 18 17 17
34 34 34 34 33 32 33 33 32 30 30 30 29 30 28 27 26 25 24 23 22 21 19 18 18 16 16 15 16 16 15 15 15 15 15 15 15 15 16 17 17 18 18 18
35 34 33 33 32 32 31 32 31 30 30 29 29 29 28 27 25 24 23 22 21 20 19 17 16 16 16 16 16 17 16 17 17 17 17 17 17 18 18 18 18 19 19 19
33 33 31 31 31 30 30 31 31 31 29 27 28 28 28 27 26 24 22 22 21 20 19 17 16 16 16 17 17 17 18 18 18 18 18 18 19 19 19 19 19 19 20 20
32 33 31 30 30 30 28 29 30 30 29 29 28 27 26 25 24 24 22 21 21 21 20 18 18 17 18 17 17 18 18 18 19 19 19 19 19 19 19 20 20 20 21 22
Wind_Direction
221 220 220 221 220 220 221 220 219 218 216 223 232 239 248 257 262 271 276 275 282 291 289 283 282 286 289 281 276 273 267 269 255 252 248 247 249 253 258 263 258 257 260 259
220 219 217 218 217 217 218 218 220 218 217 226 235 239 244 254 261 267 272 269 273 282 286 282 280 284 286 280 272 264 261 261 255 250 245 249 249 251 257 265 259 259 260 259
219 215 215 216 216 217 217 216 217 215 216 227 235 240 242 250 261 266 270 267 268 276 281 282 281 283 283 279 270 264 258 260 258 255 249 248 252 255 260 264 259 257 258 259
214 212 213 214 214 217 218 215 215 214 219 223 231 237 241 248 256 261 266 267 266 273 277 276 275 280 283 277 267 262 258 258 259 258 254 251 254 257 258 261 261 258 254 256
213 213 213 213 213 215 213 212 214 216 221 225 230 236 239 245 252 259 266 266 263 271 274 273 274 279 279 273 266 262 256 256 256 256 256 253 252 252 255 260 258 257 254 253
210 211 212 210 211 212 211 214 217 219 224 228 232 239 242 247 254 257 257 260 260 262 267 271 274 279 276 269 266 261 257 254 255 258 258 256 254 253 256 257 255 251 253 251
210 211 211 209 209 210 213 216 218 221 226 230 233 241 245 249 253 253 250 252 255 259 263 268 269 275 275 273 270 263 257 255 255 257 259 259 255 254 254 254 252 249 248 249
212 211 211 211 212 213 215 219 221 224 227 232 235 242 244 248 250 249 249 251 255 258 261 263 262 265 268 269 270 264 258 255 255 256 258 256 253 252 251 251 250 247 245 245
212 210 210 212 214 216 216 217 221 226 228 232 234 239 244 247 247 247 248 251 254 260 258 258 258 257 265 267 266 262 258 256 257 259 258 257 255 252 251 248 248 245 246 246
213 211 211 210 212 215 216 216 220 224 227 232 234 237 240 245 248 243 245 250 257 258 255 253 257 258 261 265 264 260 256 256 254 256 259 257 255 252 250 246 245 244 248 249
215 213 209 210 212 213 215 216 220 225 230 234 238 238 240 251 251 252 251 255 255 257 259 256 255 256 259 265 268 264 261 256 253 254 254 252 250 248 246 246 247 246 249 251
214 215 212 212 214 214 216 219 220 225 230 236 241 242 239 250 250 251 254 254 251 256 258 252 252 256 260 266 267 269 266 257 253 250 249 251 249 249 249 248 248 248 248 249
215 216 213 212 214 214 215 216 220 225 231 234 239 240 238 245 250 255 253 252 253 256 256 261 258 255 258 263 267 268 268 261 254 250 249 252 256 253 250 247 248 248 250 251
218 220 217 216 218 218 219 220 221 225 230 234 238 239 238 244 254 261 260 262 258 260 262 266 262 258 259 264 266 266 265 263 261 257 255 257 257 253 247 246 248 248 251 252
217 220 219 217 216 218 220 221 223 226 231 236 238 240 241 246 255 259 258 264 264 266 267 270 264 264 268 267 265 265 263 262 261 259 257 259 260 258 253 250 248 249 252 252
220 221 221 218 218 221 223 223 224 226 231 236 238 238 239 242 248 254 262 263 261 262 267 270 268 266 263 264 264 263 260 261 261 258 256 258 261 260 257 254 251 251 253 254
221 223 222 222 221 224 225 225 226 228 230 234 238 239 239 242 247 253 260 262 258 263 265 273 270 262 263 265 267 262 260 260 261 257 256 259 260 259 259 258 258 259 258 259
221 223 224 224 223 226 225 227 228 230 231 234 238 238 240 242 247 251 257 260 262 267 266 270 264 259 261 262 261 257 257 259 260 262 260 258 258 260 260 257 256 258 256 260
223 223 225 225 225 226 224 225 227 228 231 234 237 239 242 246 247 251 257 261 262 267 265 266 265 263 260 260 258 251 252 256 262 265 266 261 259 260 259 257 257 258 262 262
224 226 227 227 227 227 225 225 228 231 233 234 236 239 242 246 247 251 257 259 263 268 265 265 265 264 265 263 260 254 255 260 263 263 263 262 261 260 259 258 260 262 266 261
225 227 229 228 230 229 228 226 227 231 233 233 234 236 239 241 246 251 256 256 257 260 263 266 266 265 263 262 260 257 259 262 263 262 263 264 263 262 262 260 262 264 266 261
225 227 229 229 230 230 228 228 228 230 233 234 235 235 236 240 246 250 254 257 256 258 262 264 264 262 261 261 261 263 263 263 263 263 265 265 262 263 263 265 267 269 266 263
225 227 228 230 232 231 229 228 228 229 229 232 234 233 236 239 244 248 249 252 256 259 264 265 260 259 262 262 263 264 265 264 264 264 264 262 262 264 265 266 268 268 266 266
226 226 228 228 229 229 228 228 229 230 232 232 234 236 235 238 243 243 242 246 252 257 262 263 260 260 260 262 265 265 265 264 266 266 264 263 265 264 265 267 269 269 270 269
226 226 227 229 230 230 230 231 231 230 231 233 235 234 236 242 244 243 239 242 247 253 257 260 259 259 260 263 266 267 268 266 265 265 264 265 264 262 264 266 269 271 272 273
224 226 226 228 228 228 228 230 230 230 231 233 233 233 234 236 238 238 238 241 246 249 253 255 256 258 261 265 268 269 269 269 268 266 264 264 263 264 267 269 271 272 273 273
Height
5845 5850 5854 5858 5862 5865 5867 5869 5871 5874 5875 5877 5878 5880 5881 5882 5882 5883 5884 5885 5885 5885 5885 5885 5885 5884 5884 5884 5884 5883 5884 5885 5886 5886 5887 5888 5889 5889 5890 5890 5890 5891 5891 5891
5841 5846 5851 5853 5856 5859 5862 5865 5868 5871 5872 5874 5875 5877 5878 5879 5880 5881 5882 5883 5883 5883 5883 5883 5883 5883 5882 5882 5882 5882 5883 5883 5883 5884 5884 5885 5886 5886 5887 5887 5887 5888 5889 5889
5837 5843 5845 5848 5852 5855 5859 5862 5865 5867 5868 5870 5872 5874 5875 5876 5877 5879 5880 5881 5881 5881 5881 5882 5882 5881 5881 5880 5880 5880 5880 5881 5881 5881 5882 5883 5883 5884 5885 5885 5885 5886 5886 5886
5831 5836 5839 5843 5847 5851 5856 5860 5862 5863 5864 5866 5869 5870 5872 5873 5875 5876 5877 5878 5878 5879 5879 5879 5879 5879 5878 5878 5877 5877 5878 5879 5879 5879 5880 5880 5881 5882 5882 5882 5883 5883 5883 5883
5827 5831 5835 5839 5844 5848 5853 5855 5857 5859 5860 5863 5865 5867 5870 5870 5872 5873 5874 5874 5876 5876 5876 5877 5877 5876 5876 5875 5875 5875 5876 5876 5877 5877 5878 5878 5879 5879 5880 5880 5880 5880 5880 5881
5822 5826 5830 5835 5840 5843 5848 5850 5853 5854 5856 5859 5862 5863 5866 5867 5869 5870 5871 5871 5872 5873 5874 5874 5874 5874 5874 5873 5873 5873 5873 5874 5874 5875 5875 5875 5876 5876 5877 5877 5877 5878 5878 5878
5817 5821 5826 5830 5834 5838 5842 5845 5848 5850 5852 5855 5858 5859 5863 5864 5865 5866 5867 5868 5869 5870 5870 5871 5871 5871 5871 5871 5871 5871 5871 5871 5872 5872 5872 5873 5873 5873 5873 5874 5875 5875 5875 5876
5812 5817 5822 5826 5830 5833 5837 5841 5844 5847 5849 5852 5854 5855 5859 5860 5861 5862 5863 5864 5865 5865 5866 5867 5868 5868 5868 5868 5868 5868 5868 5868 5869 5869 5869 5870 5870 5870 5871 5871 5872 5872 5873 5873
5808 5814 5818 5822 5826 5829 5832 5836 5840 5843 5845 5847 5849 5852 5854 5855 5856 5858 5859 5860 5861 5862 5863 5864 5865 5865 5865 5865 5865 5865 5865 5866 5866 5866 5866 5867 5867 5867 5868 5868 5869 5869 5870 5870
5804 5809 5813 5817 5821 5824 5829 5832 5835 5838 5840 5842 5846 5848 5850 5852 5853 5854 5855 5856 5857 5859 5860 5860 5861 5862 5862 5862 5862 5862 5863 5863 5863 5863 5863 5863 5864 5864 5864 5865 5865 5866 5867 5867
5799 5804 5808 5812 5815 5820 5824 5827 5830 5833 5836 5839 5841 5845 5847 5848 5849 5850 5851 5852 5853 5855 5856 5857 5858 5858 5859 5860 5860 5860 5859 5859 5859 5860 5860 5860 5860 5861 5861 5862 5862 5863 5863 5864
5795 5799 5803 5807 5812 5816 5819 5823 5826 5829 5831 5834 5836 5842 5843 5844 5845 5846 5847 5849 5850 5851 5852 5854 5854 5854 5855 5856 5856 5856 5856 5856 5855 5856 5856 5856 5856 5857 5858 5859 5859 5860 5860 5861
5790 5794 5798 5803 5808 5811 5813 5817 5820 5824 5827 5829 5832 5838 5838 5840 5841 5842 5844 5845 5846 5847 5848 5849 5850 5851 5852 5852 5853 5853 5853 5852 5852 5853 5853 5854 5854 5854 5855 5856 5856 5857 5857 5857
5786 5789 5794 5799 5803 5806 5809 5812 5815 5818 5821 5824 5827 5831 5834 5836 5837 5839 5840 5841 5842 5843 5845 5845 5845 5847 5847 5848 5849 5849 5849 5849 5850 5850 5850 5851 5851 5851 5851 5852 5852 5853 5853 5854
5780 5784 5789 5793 5798 5801 5804 5807 5810 5813 5816 5820 5823 5826 5829 5832 5834 5835 5835 5837 5838 5839 5841 5842 5841 5842 5843 5843 5844 5845 5846 5846 5846 5847 5847 5847 5848 5848 5848 5848 5848 5849 5850 5850
5774 5779 5784 5788 5792 5795 5798 5802 5805 5808 5811 5814 5817 5821 5825 5827 5829 5830 5832 5833 5834 5836 5837 5838 5838 5838 5839 5839 5840 5841 5842 5842 5843 5843 5843 5844 5844 5844 5843 5844 5844 5845 5845 5845
5769 5774 5778 5782 5786 5789 5793 5797 5799 5803 5806 5809 5813 5818 5820 5822 5824 5826 5828 5829 5830 5831 5832 5833 5833 5834 5834 5835 5835 5836 5837 5838 5839 5839 5839 5839 5840 5839 5839 5840 5840 5840 5841 5841
5764 5768 5772 5776 5781 5783 5790 5792 5795 5798 5801 5804 5808 5811 5814 5817 5819 5821 5823 5824 5825 5826 5827 5827 5828 5829 5830 5831 5831 5832 5833 5833 5834 5834 5835 5835 5835 5835 5835 5835 5836 5836 5836 5837
5759 5762 5766 5770 5773 5777 5783 5786 5789 5793 5796 5799 5802 5805 5808 5811 5814 5817 5819 5820 5820 5821 5821 5822 5823 5823 5824 5825 5827 5828 5828 5829 5830 5830 5830 5830 5830 5831 5831 5831 5831 5832 5832 5832
5752 5756 5760 5763 5766 5770 5778 5781 5783 5788 5790 5794 5796 5799 5802 5806 5809 5812 5813 5815 5816 5816 5818 5818 5819 5820 5821 5822 5822 5824 5825 5825 5825 5826 5826 5826 5826 5826 5827 5827 5827 5827 5827 5827
5745 5749 5753 5757 5760 5765 5771 5775 5778 5782 5786 5789 5791 5794 5798 5801 5805 5807 5808 5809 5811 5813 5814 5815 5816 5817 5817 5818 5819 5820 5820 5821 5821 5822 5822 5822 5822 5822 5822 5823 5823 5823 5822 5822
5738 5742 5747 5751 5754 5761 5764 5768 5772 5776 5780 5783 5786 5789 5792 5796 5799 5802 5803 5804 5806 5808 5809 5811 5812 5811 5812 5813 5814 5815 5816 5816 5817 5817 5817 5817 5817 5818 5818 5818 5818 5818 5817 5817
5732 5737 5740 5745 5750 5753 5757 5761 5765 5770 5773 5777 5780 5784 5788 5791 5794 5796 5798 5800 5802 5803 5804 5805 5807 5807 5807 5808 5810 5810 5811 5812 5812 5812 5813 5813 5813 5813 5813 5813 5813 5813 5813 5813
5726 5730 5734 5738 5742 5746 5750 5755 5759 5763 5767 5771 5775 5779 5782 5785 5788 5790 5793 5795 5797 5798 5800 5800 5802 5803 5804 5804 5805 5806 5806 5807 5807 5807 5808 5808 5808 5808 5808 5808 5808 5808 5808 5808
5719 5724 5728 5732 5736 5740 5744 5749 5753 5757 5761 5765 5768 5771 5776 5779 5782 5785 5787 5790 5792 5794 5796 5797 5798 5799 5800 5800 5801 5801 5801 5802 5802 5802 5803 5803 5802 5802 5802 5803 5803 5803 5803 5802
5713 5718 5722 5726 5731 5735 5739 5743 5747 5751 5754 5758 5761 5764 5768 5772 5775 5779 5781 5784 5787 5789 5791 5792 5793 5794 5795 5795 5796 5796 5796 5796 5796 5796 5797 5796 5796 5797 5797 5797 5797 5797 5797 5796